TimeCDT,TemperatureF,Dew PointF,Humidity,Sea Level PressureIn,VisibilityMPH,Wind Direction,Wind SpeedMPH,Gust SpeedMPH,PrecipitationIn,Events,Conditions,WindDirDegrees,DateUTC
12:15 AM,47.8,26.2,43,29.97,10.0,South,9.2,-,N/A,,Clear,170,2014-04-25 05:15:00
12:35 AM,47.3,26.2,44,29.97,10.0,South,9.2,-,N/A,,Clear,170,2014-04-25 05:35:00
12:55 AM,49.5,24.3,37,29.97,10.0,South,9.2,-,N/A,,Clear,170,2014-04-25 05:55:00
1:15 AM,51.6,23.9,34,29.96,10.0,South,11.5,-,N/A,,Clear,170,2014-04-25 06:15:00
1:35 AM,52.7,23.9,33,29.96,10.0,South,11.5,-,N/A,,Clear,170,2014-04-25 06:35:00
1:55 AM,53.8,23.9,31,29.96,10.0,South,12.7,-,N/A,,Clear,180,2014-04-25 06:55:00
2:15 AM,52.9,24.4,33,29.96,10.0,South,13.8,-,N/A,,Clear,180,2014-04-25 07:15:00
2:35 AM,52.0,24.6,35,29.95,10.0,South,13.8,-,N/A,,Clear,180,2014-04-25 07:35:00
2:55 AM,50.4,25.2,37,29.95,10.0,South,13.8,-,N/A,,Clear,180,2014-04-25 07:55:00
3:15 AM,51.8,25.7,36,29.94,10.0,South,15.0,-,N/A,,Clear,180,2014-04-25 08:15:00
3:35 AM,51.3,26.6,38,29.94,10.0,South,15.0,-,N/A,,Clear,180,2014-04-25 08:35:00
3:55 AM,52.5,27.1,38,29.94,10.0,South,17.3,-,N/A,,Clear,180,2014-04-25 08:55:00
4:15 AM,52.0,27.5,39,29.94,10.0,South,15.0,-,N/A,,Clear,180,2014-04-25 09:15:00
4:35 AM,51.6,27.5,39,29.94,10.0,South,16.1,-,N/A,,Clear,180,2014-04-25 09:35:00
4:55 AM,51.4,28.2,41,29.94,10.0,South,17.3,-,N/A,,Clear,180,2014-04-25 09:55:00
5:15 AM,51.8,28.4,41,29.95,10.0,South,16.1,-,N/A,,Clear,180,2014-04-25 10:15:00
5:35 AM,51.3,28.4,41,29.95,10.0,South,16.1,-,N/A,,Clear,180,2014-04-25 10:35:00
5:55 AM,51.1,28.4,42,29.95,10.0,South,17.3,-,N/A,,Clear,180,2014-04-25 10:55:00
6:15 AM,51.3,28.4,41,29.95,10.0,South,17.3,-,N/A,,Clear,180,2014-04-25 11:15:00
6:35 AM,51.8,28.4,41,29.95,10.0,South,17.3,-,N/A,,Clear,180,2014-04-25 11:35:00
6:55 AM,51.8,28.4,41,29.95,10.0,South,17.3,-,N/A,,Clear,180,2014-04-25 11:55:00
7:15 AM,51.1,28.4,42,29.96,10.0,South,13.8,-,N/A,,Clear,180,2014-04-25 12:15:00
7:35 AM,51.1,28.4,42,29.96,10.0,South,13.8,-,N/A,,Clear,180,2014-04-25 12:35:00
7:55 AM,52.5,28.4,39,29.97,10.0,South,15.0,-,N/A,,Clear,180,2014-04-25 12:55:00
8:15 AM,54.7,29.3,38,29.98,10.0,South,15.0,-,N/A,,Clear,180,2014-04-25 13:15:00
8:35 AM,58.3,29.5,33,29.98,10.0,South,18.4,23.0,N/A,,Clear,180,2014-04-25 13:35:00
8:55 AM,60.8,30.0,31,29.99,10.0,South,21.9,27.6,N/A,,Clear,180,2014-04-25 13:55:00
9:15 AM,63.5,30.2,29,29.98,10.0,South,23.0,31.1,N/A,,Clear,190,2014-04-25 14:15:00
9:35 AM,65.3,30.6,27,29.98,10.0,South,23.0,31.1,N/A,,Clear,190,2014-04-25 14:35:00
9:55 AM,66.7,30.4,26,29.97,10.0,South,25.3,32.2,N/A,,Clear,190,2014-04-25 14:55:00
10:15 AM,67.3,30.4,25,29.97,10.0,South,24.2,32.2,N/A,,Clear,190,2014-04-25 15:15:00
10:35 AM,68.9,30.9,24,29.97,10.0,South,20.7,28.8,N/A,,Clear,190,2014-04-25 15:35:00
10:55 AM,70.7,30.6,23,29.97,10.0,South,20.7,31.1,N/A,,Clear,190,2014-04-25 15:55:00
11:15 AM,71.8,30.4,22,29.96,10.0,South,25.3,31.1,N/A,,Clear,190,2014-04-25 16:15:00
11:35 AM,73.4,30.4,20,29.96,10.0,South,23.0,29.9,N/A,,Clear,190,2014-04-25 16:35:00
11:55 AM,74.7,29.7,19,29.95,10.0,SSW,25.3,33.4,N/A,,Clear,210,2014-04-25 16:55:00
12:15 PM,76.8,28.4,17,29.94,10.0,SSW,27.6,35.7,N/A,,Clear,210,2014-04-25 17:15:00
12:35 PM,77.7,28.2,16,29.93,10.0,SSW,25.3,33.4,N/A,,Clear,200,2014-04-25 17:35:00
12:55 PM,79.2,27.9,15,29.92,10.0,SSW,24.2,33.4,N/A,,Clear,200,2014-04-25 17:55:00
1:15 PM,80.6,26.8,14,29.91,10.0,SSW,24.2,32.2,N/A,,Clear,200,2014-04-25 18:15:00
1:35 PM,82.0,25.7,13,29.89,10.0,SSW,23.0,31.1,N/A,,Clear,210,2014-04-25 18:35:00
1:55 PM,83.3,24.3,11,29.88,10.0,SW,19.6,32.2,N/A,,Clear,230,2014-04-25 18:55:00
2:15 PM,84.6,25.5,12,29.87,10.0,SSW,25.3,33.4,N/A,,Clear,210,2014-04-25 19:15:00
2:35 PM,85.3,24.3,11,29.87,10.0,SW,21.9,29.9,N/A,,Clear,220,2014-04-25 19:35:00
2:55 PM,84.9,25.2,11,29.86,10.0,SW,18.4,28.8,N/A,,Clear,230,2014-04-25 19:55:00
3:15 PM,85.8,24.8,11,29.84,10.0,SW,19.6,28.8,N/A,,Clear,220,2014-04-25 20:15:00
3:35 PM,85.8,24.3,11,29.84,10.0,SSW,23.0,28.8,N/A,,Clear,210,2014-04-25 20:35:00
3:55 PM,86.7,25.7,11,29.82,10.0,SW,19.6,24.2,N/A,,Clear,220,2014-04-25 20:55:00
4:15 PM,86.2,26.1,11,29.80,10.0,SSW,20.7,27.6,N/A,,Clear,200,2014-04-25 21:15:00
4:35 PM,87.6,27.7,11,29.80,10.0,SSW,23.0,31.1,N/A,,Clear,200,2014-04-25 21:35:00
4:55 PM,87.1,26.6,11,29.79,10.0,SW,16.1,27.6,N/A,,Clear,220,2014-04-25 21:55:00
5:15 PM,87.6,26.8,11,29.77,10.0,SSW,18.4,28.8,N/A,,Clear,200,2014-04-25 22:15:00
5:35 PM,87.4,25.3,10,29.77,10.0,SSW,21.9,28.8,N/A,,Clear,210,2014-04-25 22:35:00
5:55 PM,86.5,22.3,10,29.76,10.0,SW,17.3,21.9,N/A,,Clear,230,2014-04-25 22:55:00
6:15 PM,85.5,22.6,10,29.76,10.0,SSW,19.6,27.6,N/A,,Clear,200,2014-04-25 23:15:00
6:35 PM,85.1,21.4,10,29.75,10.0,SW,18.4,25.3,N/A,,Clear,220,2014-04-25 23:35:00
6:55 PM,84.2,22.6,10,29.75,10.0,SSW,18.4,24.2,N/A,,Clear,210,2014-04-25 23:55:00
7:15 PM,83.5,21.9,10,29.75,10.0,SSW,16.1,21.9,N/A,,Clear,210,2014-04-26 00:15:00
7:35 PM,82.0,22.1,11,29.74,10.0,SSW,12.7,-,N/A,,Clear,210,2014-04-26 00:35:00
7:55 PM,79.3,22.1,12,29.74,10.0,SSW,9.2,-,N/A,,Clear,200,2014-04-26 00:55:00
8:15 PM,75.2,20.8,13,29.75,10.0,South,6.9,-,N/A,,Clear,180,2014-04-26 01:15:00
8:35 PM,71.8,22.1,15,29.75,10.0,South,6.9,-,N/A,,Clear,190,2014-04-26 01:35:00
8:55 PM,70.3,34.5,27,29.76,10.0,SE,9.2,-,N/A,,Clear,140,2014-04-26 01:55:00
9:15 PM,72.3,35.1,26,29.76,10.0,SSE,11.5,-,N/A,,Clear,160,2014-04-26 02:15:00
9:35 PM,73.8,38.1,27,29.78,10.0,South,15.0,-,N/A,,Clear,170,2014-04-26 02:35:00
9:55 PM,74.3,38.5,27,29.78,10.0,South,20.7,-,N/A,,Clear,170,2014-04-26 02:55:00
10:15 PM,73.4,38.3,28,29.78,10.0,South,19.6,28.8,N/A,,Clear,180,2014-04-26 03:15:00
10:35 PM,72.5,37.4,28,29.78,10.0,South,20.7,27.6,N/A,,Clear,170,2014-04-26 03:35:00
11:15 PM,70.3,36.7,29,29.77,10.0,South,21.9,26.5,N/A,,Clear,180,2014-04-26 04:15:00
11:35 PM,69.4,36.9,30,29.76,10.0,South,20.7,26.5,N/A,,Clear,180,2014-04-26 04:35:00
11:55 PM,68.9,36.9,31,29.76,10.0,South,19.6,27.6,N/A,,Clear,180,2014-04-26 04:55:00